,,,PA_Meas_PMT16A,,PR_Meas_QMR101_102,,RH_Meas_QMH101,,SR_Meas_QMS101,,TA_Meas_QMH101,,GenWind,,GenWind,
date,time,status,PA,status,PR,status,RH,status,SR,status,TA,status,DirAvg,status,SpdAvg,
2008-10-02, 00:00:04,VALID,1005.46,VALID,0,VALID,87.16,VALID,0,VALID,25.4169,VALID,346,VALID,0.526953,
2008-10-02, 00:01:04,VALID,1005.46,VALID,0,VALID,87.0837,VALID,0,VALID,25.4344,VALID,358,VALID,0.329297,
2008-10-02, 00:02:04,VALID,1005.47,VALID,0,VALID,86.9616,VALID,0,VALID,25.4753,VALID,358,VALID,0.182812,
2008-10-02, 00:03:04,VALID,1005.49,VALID,0,VALID,87.0455,VALID,0,VALID,25.4558,VALID,358,VALID,0,
2008-10-02, 00:04:04,VALID,1005.48,VALID,0,VALID,87.2134,VALID,0,VALID,25.4169,VALID,358,VALID,0,
2008-10-02, 00:05:04,VALID,1005.46,VALID,0,VALID,87.3278,VALID,0,VALID,25.3974,VALID,358,VALID,0,
2008-10-02, 00:06:04,VALID,1005.46,VALID,0,VALID,87.4575,VALID,0,VALID,25.3993,VALID,358,VALID,0.462891,
2008-10-02, 00:07:04,VALID,1005.44,VALID,0,VALID,87.5719,VALID,0,VALID,25.3195,VALID,358,VALID,0.367188,
2008-10-02, 00:08:04,VALID,1005.42,VALID,0,VALID,87.6101,VALID,0,VALID,25.3,VALID,358,VALID,0.30625,
2008-10-02, 00:09:04,VALID,1005.43,VALID,0,VALID,87.8313,VALID,0,VALID,25.263,VALID,358,VALID,0.316406,
2008-10-02, 00:10:04,VALID,1005.41,VALID,0,VALID,88.0983,VALID,0,VALID,25.2046,VALID,358,VALID,0.103125,
2008-10-02, 00:11:04,VALID,1005.42,VALID,0,VALID,88.2967,VALID,0,VALID,25.187,VALID,358,VALID,0,
2008-10-02, 00:12:04,VALID,1005.42,VALID,0,VALID,88.6018,VALID,0,VALID,25.1072,VALID,358,VALID,0,
2008-10-02, 00:13:04,VALID,1005.43,VALID,0,VALID,88.7239,VALID,0,VALID,25.0682,VALID,358,VALID,0,
2008-10-02, 00:14:04,VALID,1005.4,VALID,0,VALID,88.9756,VALID,0,VALID,25.0293,VALID,358,VALID,0,
2008-10-02, 00:15:04,VALID,1005.39,VALID,0,VALID,89.38,VALID,0,VALID,24.9904,VALID,358,VALID,0.361719,
2008-10-02, 00:16:04,VALID,1005.38,VALID,0,VALID,89.5631,VALID,0,VALID,24.9338,VALID,358,VALID,0.333594,
2008-10-02, 00:17:04,VALID,1005.33,VALID,0,VALID,89.7309,VALID,0,VALID,24.8735,VALID,358,VALID,0.484375,
2008-10-02, 00:18:04,VALID,1005.36,VALID,0,VALID,89.975,VALID,0,VALID,24.8151,VALID,358,VALID,0.673828,
2008-10-02, 00:19:04,VALID,1005.33,VALID,0,VALID,90.3031,VALID,0,VALID,24.7548,VALID,358,VALID,0.516797,
2008-10-02, 00:20:04,VALID,1005.34,VALID,0,VALID,90.5701,VALID,0,VALID,24.7177,VALID,357,VALID,0.524609,
2008-10-02, 00:21:04,VALID,1005.28,VALID,0,VALID,90.7303,VALID,0,VALID,24.7177,VALID,357,VALID,0.480469,
2008-10-02, 00:22:04,VALID,1005.28,VALID,0,VALID,90.8371,VALID,0,VALID,24.6788,VALID,357,VALID,0.529297,
2008-10-02, 00:23:04,VALID,1005.25,VALID,0,VALID,91.0354,VALID,0,VALID,24.6593,VALID,357,VALID,0.353516,
2008-10-02, 00:24:04,VALID,1005.27,VALID,0,VALID,91.0507,VALID,0,VALID,24.638,VALID,357,VALID,0.375,
2008-10-02, 00:25:04,VALID,1005.25,VALID,0,VALID,91.0888,VALID,0,VALID,24.6398,VALID,357,VALID,0.341016,
2008-10-02, 00:26:04,VALID,1005.23,VALID,0,VALID,91.0431,VALID,0,VALID,24.599,VALID,357,VALID,0.454688,
2008-10-02, 00:27:04,VALID,1005.22,VALID,0,VALID,91.1728,VALID,0,VALID,24.5601,VALID,357,VALID,0.301172,
2008-10-02, 00:28:04,VALID,1005.23,VALID,0,VALID,91.2872,VALID,0,VALID,24.5212,VALID,357,VALID,0.411328,
2008-10-02, 00:29:04,VALID,1005.21,VALID,0,VALID,91.455,VALID,0,VALID,24.5017,VALID,357,VALID,0.304297,
2008-10-02, 00:30:04,VALID,1005.21,VALID,0,VALID,91.5847,VALID,0,VALID,24.5017,VALID,357,VALID,0.243359,
2008-10-02, 00:31:04,VALID,1005.24,VALID,0,VALID,91.5313,VALID,0,VALID,24.4822,VALID,357,VALID,0.383984,
2008-10-02, 00:32:04,VALID,1005.23,VALID,0,VALID,91.661,VALID,0,VALID,24.4433,VALID,357,VALID,0.260547,
2008-10-02, 00:33:04,VALID,1005.2,VALID,0,VALID,91.8365,VALID,0.100563,VALID,24.4433,VALID,357,VALID,0.373828,
2008-10-02, 00:34:04,VALID,1005.22,VALID,0,VALID,91.9585,VALID,0,VALID,24.4043,VALID,357,VALID,0.384766,
2008-10-02, 00:35:04,VALID,1005.2,VALID,0,VALID,92.0806,VALID,0.100563,VALID,24.3849,VALID,357,VALID,0.426953,
2008-10-02, 00:36:04,VALID,1005.16,VALID,0,VALID,92.2179,VALID,0,VALID,24.3654,VALID,357,VALID,0.388281,
2008-10-02, 00:37:04,VALID,1005.18,VALID,0,VALID,92.34,VALID,0,VALID,24.3654,VALID,357,VALID,0.3625,
2008-10-02, 00:38:04,VALID,1005.14,VALID,0,VALID,92.3934,VALID,0,VALID,24.3459,VALID,357,VALID,0.312891,
2008-10-02, 00:39:04,VALID,1005.16,VALID,0,VALID,92.4697,VALID,0,VALID,24.3265,VALID,357,VALID,0.255859,
2008-10-02, 00:40:04,VALID,1005.14,VALID,0,VALID,92.5917,VALID,0,VALID,24.3265,VALID,357,VALID,0.192188,
2008-10-02, 00:41:04,VALID,1005.13,VALID,0,VALID,92.5688,VALID,0,VALID,24.3265,VALID,357,VALID,0.178906,
2008-10-02, 00:42:04,VALID,1005.12,VALID,0,VALID,92.6909,VALID,0.100563,VALID,24.3459,VALID,356,VALID,0.197656,
2008-10-02, 00:43:04,VALID,1005.12,VALID,0,VALID,92.6756,VALID,0.100563,VALID,24.3441,VALID,356,VALID,0,
2008-10-02, 00:44:04,VALID,1005.1,VALID,0,VALID,92.5993,VALID,0,VALID,24.3441,VALID,356,VALID,0.160156,
2008-10-02, 00:45:04,VALID,1005.09,VALID,0,VALID,92.462,VALID,0,VALID,24.3441,VALID,356,VALID,0.154687,
2008-10-02, 00:46:04,VALID,1005.1,VALID,0,VALID,92.5078,VALID,0,VALID,24.3441,VALID,356,VALID,0,
2008-10-02, 00:47:04,VALID,1005.11,VALID,0,VALID,92.4391,VALID,0.100563,VALID,24.3459,VALID,356,VALID,0.373437,
2008-10-02, 00:48:04,VALID,1005.1,VALID,0,VALID,92.4468,VALID,0,VALID,24.3052,VALID,356,VALID,0.241406,
2008-10-02, 00:49:04,VALID,1005.11,VALID,0,VALID,92.4468,VALID,0.100563,VALID,24.307,VALID,356,VALID,0.255859,
2008-10-02, 00:50:04,VALID,1005.09,VALID,0,VALID,92.462,VALID,0,VALID,24.2681,VALID,356,VALID,0.237109,
2008-10-02, 00:51:05,VALID,1005.1,VALID,0,VALID,92.546,VALID,0.100563,VALID,24.2273,VALID,356,VALID,0.170703,
2008-10-02, 00:52:04,VALID,1005.09,VALID,0,VALID,92.6528,VALID,0,VALID,24.2097,VALID,356,VALID,0,
2008-10-02, 00:53:05,VALID,1005.07,VALID,0,VALID,92.7062,VALID,0.100563,VALID,24.1884,VALID,356,VALID,0,
2008-10-02, 00:54:04,VALID,1005.09,VALID,0,VALID,92.7901,VALID,0,VALID,24.1707,VALID,356,VALID,0,
2008-10-02, 00:55:05,VALID,1005.05,VALID,0,VALID,92.9579,VALID,0,VALID,24.192,VALID,356,VALID,0,
2008-10-02, 00:56:05,VALID,1005.04,VALID,0,VALID,93.0266,VALID,0,VALID,24.1726,VALID,356,VALID,0,
2008-10-02, 00:57:05,VALID,1005.04,VALID,0,VALID,93.1486,VALID,0,VALID,24.1707,VALID,356,VALID,0,
2008-10-02, 00:58:05,VALID,1005.02,VALID,0,VALID,93.3241,VALID,0,VALID,24.192,VALID,356,VALID,0.140234,
2008-10-02, 00:59:05,VALID,1005.03,VALID,0,VALID,93.3699,VALID,0,VALID,24.192,VALID,356,VALID,0,
2008-10-02, 01:00:05,VALID,1005,VALID,0,VALID,93.347,VALID,0,VALID,24.1726,VALID,356,VALID,0,
2008-10-02, 01:01:05,VALID,1004.98,VALID,0,VALID,93.347,VALID,0,VALID,24.1531,VALID,356,VALID,0,
2008-10-02, 01:02:05,VALID,1004.96,VALID,0,VALID,93.2554,VALID,0,VALID,24.1142,VALID,356,VALID,0,
2008-10-02, 01:03:05,VALID,1004.92,VALID,0,VALID,93.2631,VALID,0,VALID,24.0752,VALID,356,VALID,0.366016,
2008-10-02, 01:04:05,VALID,1004.93,VALID,0,VALID,93.3317,VALID,0,VALID,24.0557,VALID,356,VALID,0.212109,
2008-10-02, 01:05:05,VALID,1004.93,VALID,0,VALID,93.4233,VALID,0,VALID,24.0168,VALID,356,VALID,0,
2008-10-02, 01:06:05,VALID,1004.91,VALID,0,VALID,93.5072,VALID,0,VALID,24.0168,VALID,356,VALID,0.370313,
2008-10-02, 01:07:05,VALID,1004.89,VALID,0,VALID,93.5453,VALID,0,VALID,23.9973,VALID,356,VALID,0.0460938,
2008-10-02, 01:08:05,VALID,1004.85,VALID,0,VALID,93.5453,VALID,0,VALID,23.9584,VALID,356,VALID,0.3125,
2008-10-02, 01:09:05,VALID,1004.82,VALID,0,VALID,93.5682,VALID,0,VALID,23.8982,VALID,356,VALID,0.316016,
2008-10-02, 01:10:05,VALID,1004.8,VALID,0,VALID,93.5911,VALID,0,VALID,23.8787,VALID,356,VALID,0.376563,
2008-10-02, 01:11:05,VALID,1004.78,VALID,0,VALID,93.5911,VALID,0,VALID,23.8805,VALID,356,VALID,0.257422,
2008-10-02, 01:12:05,VALID,1004.76,VALID,0,VALID,93.6674,VALID,0,VALID,23.8611,VALID,356,VALID,0.248047,
2008-10-02, 01:13:05,VALID,1004.76,VALID,0,VALID,93.6598,VALID,0,VALID,23.8416,VALID,356,VALID,0.189063,
2008-10-02, 01:14:05,VALID,1004.76,VALID,0,VALID,93.7208,VALID,0,VALID,23.8611,VALID,356,VALID,0.198437,
2008-10-02, 01:15:05,VALID,1004.73,VALID,0,VALID,93.7589,VALID,0,VALID,23.8416,VALID,356,VALID,0.282813,
2008-10-02, 01:16:05,VALID,1004.74,VALID,0,VALID,93.9191,VALID,0,VALID,23.8398,VALID,356,VALID,0.305859,
2008-10-02, 01:17:05,VALID,1004.72,VALID,0,VALID,94.0031,VALID,0,VALID,23.8805,VALID,356,VALID,0.21875,
2008-10-02, 01:18:05,VALID,1004.7,VALID,0,VALID,94.0107,VALID,0,VALID,23.8805,VALID,356,VALID,0.300781,
2008-10-02, 01:19:05,VALID,1004.67,VALID,0,VALID,93.9115,VALID,0,VALID,23.8805,VALID,356,VALID,0.392188,
2008-10-02, 01:20:05,VALID,1004.7,VALID,0,VALID,93.9268,VALID,0,VALID,23.8805,VALID,356,VALID,0.468359,
2008-10-02, 01:21:05,VALID,1004.68,VALID,0,VALID,93.9497,VALID,0,VALID,23.8593,VALID,356,VALID,0.552734,
2008-10-02, 01:22:05,VALID,1004.67,VALID,0,VALID,93.9954,VALID,0,VALID,23.8593,VALID,356,VALID,0.348437,
2008-10-02, 01:23:05,VALID,1004.67,VALID,0,VALID,94.0565,VALID,0,VALID,23.8611,VALID,356,VALID,0.374219,
2008-10-02, 01:24:05,VALID,1004.67,VALID,0,VALID,94.2014,VALID,0,VALID,23.8593,VALID,356,VALID,0.390625,
2008-10-02, 01:25:05,VALID,1004.68,VALID,0,VALID,94.1099,VALID,0,VALID,23.8398,VALID,356,VALID,0.347266,
2008-10-02, 01:26:05,VALID,1004.68,VALID,0,VALID,94.2167,VALID,0,VALID,23.8805,VALID,356,VALID,0.378125,
2008-10-02, 01:27:05,VALID,1004.68,VALID,0,VALID,94.2396,VALID,0,VALID,23.8805,VALID,356,VALID,0.273828,
2008-10-02, 01:28:05,VALID,1004.66,VALID,0,VALID,94.1633,VALID,0,VALID,23.8398,VALID,356,VALID,0.338672,
2008-10-02, 01:29:05,VALID,1004.65,VALID,0,VALID,94.1404,VALID,0,VALID,23.8611,VALID,356,VALID,0.358984,
2008-10-02, 01:30:05,VALID,1004.64,VALID,0,VALID,94.1938,VALID,0,VALID,23.8203,VALID,356,VALID,0.38125,
2008-10-02, 01:31:05,VALID,1004.65,VALID,0,VALID,94.1785,VALID,0,VALID,23.8416,VALID,356,VALID,0.397656,
2008-10-02, 01:32:05,VALID,1004.63,VALID,0,VALID,94.1862,VALID,0,VALID,23.8416,VALID,356,VALID,0.476172,
2008-10-02, 01:33:05,VALID,1004.58,VALID,0,VALID,94.2319,VALID,0,VALID,23.8009,VALID,356,VALID,0.332031,
2008-10-02, 01:34:05,VALID,1004.6,VALID,0,VALID,94.293,VALID,0,VALID,23.8416,VALID,356,VALID,0.360156,
2008-10-02, 01:35:05,VALID,1004.57,VALID,0,VALID,94.3616,VALID,0.100563,VALID,23.8398,VALID,356,VALID,0.361719,
2008-10-02, 01:36:05,VALID,1004.58,VALID,0,VALID,94.4227,VALID,0.100563,VALID,23.8398,VALID,356,VALID,0.249609,
2008-10-02, 01:37:05,VALID,1004.59,VALID,0,VALID,94.3692,VALID,0.100563,VALID,23.8593,VALID,356,VALID,0.269141,
2008-10-02, 01:38:05,VALID,1004.58,VALID,0,VALID,94.3616,VALID,0.100563,VALID,23.8398,VALID,356,VALID,0.207813,
2008-10-02, 01:39:05,VALID,1004.58,VALID,0,VALID,94.4074,VALID,0,VALID,23.8203,VALID,356,VALID,0.217187,
2008-10-02, 01:40:05,VALID,1004.6,VALID,0,VALID,94.3769,VALID,0,VALID,23.8611,VALID,356,VALID,0.287109,
2008-10-02, 01:41:05,VALID,1004.59,VALID,0,VALID,94.3845,VALID,0,VALID,23.8611,VALID,356,VALID,0.116406,
2008-10-02, 01:42:05,VALID,1004.61,VALID,0,VALID,94.3311,VALID,0,VALID,23.8203,VALID,356,VALID,0.253125,
2008-10-02, 01:43:05,VALID,1004.57,VALID,0,VALID,94.3158,VALID,0,VALID,23.8221,VALID,356,VALID,0.272656,
2008-10-02, 01:44:05,VALID,1004.57,VALID,0,VALID,94.3845,VALID,0,VALID,23.8009,VALID,356,VALID,0.286328,
2008-10-02, 01:45:05,VALID,1004.58,VALID,0,VALID,94.415,VALID,0,VALID,23.8009,VALID,356,VALID,0.324609,
2008-10-02, 01:46:05,VALID,1004.56,VALID,0,VALID,94.4074,VALID,0,VALID,23.8009,VALID,356,VALID,0.330859,
2008-10-02, 01:47:05,VALID,1004.55,VALID,0,VALID,94.3998,VALID,0,VALID,23.8221,VALID,356,VALID,0.443359,
2008-10-02, 01:48:05,VALID,1004.55,VALID,0,VALID,94.3845,VALID,0,VALID,23.8027,VALID,356,VALID,0.389453,
2008-10-02, 01:49:05,VALID,1004.54,VALID,0,VALID,94.3921,VALID,0,VALID,23.7814,VALID,356,VALID,0.473828,
2008-10-02, 01:50:05,VALID,1004.53,VALID,0,VALID,94.4227,VALID,0,VALID,23.8027,VALID,356,VALID,0.485156,
2008-10-02, 01:51:05,VALID,1004.52,VALID,0,VALID,94.4608,VALID,0,VALID,23.7814,VALID,356,VALID,0.509375,
2008-10-02, 01:52:05,VALID,1004.5,VALID,0,VALID,94.4837,VALID,0,VALID,23.7814,VALID,356,VALID,0.465234,
2008-10-02, 01:53:05,VALID,1004.5,VALID,0,VALID,94.4837,VALID,0,VALID,23.7619,VALID,356,VALID,0.370313,
2008-10-02, 01:54:05,VALID,1004.49,VALID,0,VALID,94.4684,VALID,0,VALID,23.8027,VALID,356,VALID,0.401953,
2008-10-02, 01:55:05,VALID,1004.49,VALID,0,VALID,94.4837,VALID,0,VALID,23.7619,VALID,355,VALID,0.135547,
2008-10-02, 01:56:05,VALID,1004.49,VALID,0,VALID,94.5142,VALID,0,VALID,23.7832,VALID,355,VALID,0,
2008-10-02, 01:57:05,VALID,1004.48,VALID,0,VALID,94.5295,VALID,0,VALID,23.7814,VALID,355,VALID,0,
2008-10-02, 01:58:05,VALID,1004.49,VALID,0,VALID,94.5142,VALID,0,VALID,23.7832,VALID,355,VALID,0,
2008-10-02, 01:59:05,VALID,1004.5,VALID,0,VALID,94.5142,VALID,0,VALID,23.7619,VALID,355,VALID,0,
2008-10-02, 02:00:05,VALID,1004.53,VALID,0,VALID,94.5142,VALID,0,VALID,23.7814,VALID,355,VALID,0,
2008-10-02, 02:01:05,VALID,1004.52,VALID,0,VALID,94.5371,VALID,0,VALID,23.7814,VALID,355,VALID,0,
2008-10-02, 02:02:05,VALID,1004.5,VALID,0,VALID,94.5295,VALID,0,VALID,23.7814,VALID,355,VALID,0,
2008-10-02, 02:03:05,VALID,1004.46,VALID,0,VALID,94.5295,VALID,0,VALID,23.7814,VALID,355,VALID,0,
2008-10-02, 02:04:05,VALID,1004.47,VALID,0,VALID,94.4761,VALID,0,VALID,23.8027,VALID,355,VALID,0,
2008-10-02, 02:05:05,VALID,1004.46,VALID,0,VALID,94.4837,VALID,0,VALID,23.7814,VALID,355,VALID,0,
2008-10-02, 02:06:05,VALID,1004.47,VALID,0,VALID,94.4684,VALID,0,VALID,23.7814,VALID,355,VALID,0,
2008-10-02, 02:07:05,VALID,1004.46,VALID,0,VALID,94.4913,VALID,0,VALID,23.7619,VALID,355,VALID,0,
2008-10-02, 02:08:05,VALID,1004.47,VALID,0,VALID,94.4989,VALID,0,VALID,23.7814,VALID,355,VALID,0,
2008-10-02, 02:09:05,VALID,1004.46,VALID,0,VALID,94.5218,VALID,0,VALID,23.8045,VALID,355,VALID,0,
2008-10-02, 02:10:05,VALID,1004.46,VALID,0,VALID,94.5447,VALID,0,VALID,23.8221,VALID,355,VALID,0,
2008-10-02, 02:11:05,VALID,1004.46,VALID,0,VALID,94.5981,VALID,0,VALID,23.8009,VALID,355,VALID,0,
2008-10-02, 02:12:05,VALID,1004.44,VALID,0,VALID,94.6515,VALID,0,VALID,23.8398,VALID,355,VALID,0,
2008-10-02, 02:13:05,VALID,1004.43,VALID,0,VALID,94.6134,VALID,0,VALID,23.8593,VALID,355,VALID,0,
2008-10-02, 02:14:05,VALID,1004.4,VALID,0,VALID,94.5829,VALID,0,VALID,23.8593,VALID,355,VALID,0,
2008-10-02, 02:15:05,VALID,1004.38,VALID,0,VALID,94.5295,VALID,0,VALID,23.8593,VALID,355,VALID,0,
2008-10-02, 02:16:05,VALID,1004.39,VALID,0,VALID,94.4761,VALID,0,VALID,23.8593,VALID,355,VALID,0,
2008-10-02, 02:17:05,VALID,1004.38,VALID,0,VALID,94.4379,VALID,0,VALID,23.8398,VALID,355,VALID,0,
2008-10-02, 02:18:05,VALID,1004.38,VALID,0,VALID,94.3769,VALID,0,VALID,23.8203,VALID,355,VALID,0,
2008-10-02, 02:19:05,VALID,1004.39,VALID,0,VALID,94.354,VALID,0,VALID,23.8221,VALID,355,VALID,0.0492188,
2008-10-02, 02:20:05,VALID,1004.4,VALID,0,VALID,94.3769,VALID,0,VALID,23.7814,VALID,355,VALID,0.298438,
2008-10-02, 02:21:05,VALID,1004.39,VALID,0,VALID,94.2701,VALID,0,VALID,23.7637,VALID,355,VALID,0.421875,
2008-10-02, 02:22:05,VALID,1004.38,VALID,0,VALID,94.3006,VALID,0,VALID,23.7425,VALID,355,VALID,0.450781,
2008-10-02, 02:23:05,VALID,1004.37,VALID,0,VALID,94.3616,VALID,0,VALID,23.723,VALID,355,VALID,0.467969,
2008-10-02, 02:24:05,VALID,1004.38,VALID,0,VALID,94.3387,VALID,0,VALID,23.7248,VALID,355,VALID,0.4625,
2008-10-02, 02:25:05,VALID,1004.35,VALID,0,VALID,94.3616,VALID,0,VALID,23.6841,VALID,355,VALID,0.722266,
2008-10-02, 02:26:05,VALID,1004.37,VALID,0,VALID,94.4303,VALID,0,VALID,23.7248,VALID,355,VALID,0.660937,
2008-10-02, 02:27:05,VALID,1004.39,VALID,0,VALID,94.5295,VALID,0,VALID,23.7248,VALID,355,VALID,0.521094,
2008-10-02, 02:28:05,VALID,1004.36,VALID,0,VALID,94.5981,VALID,0,VALID,23.7248,VALID,355,VALID,0.677734,
2008-10-02, 02:29:05,VALID,1004.37,VALID,0,VALID,94.621,VALID,0,VALID,23.7053,VALID,354,VALID,0.742578,
2008-10-02, 02:30:05,VALID,1004.37,VALID,0,VALID,94.7965,VALID,0,VALID,23.8027,VALID,354,VALID,0.709375,
2008-10-02, 02:31:05,VALID,1004.36,VALID,0,VALID,94.7354,VALID,0,VALID,23.8027,VALID,354,VALID,0.639453,
2008-10-02, 02:32:05,VALID,1004.34,VALID,0,VALID,94.7354,VALID,0,VALID,23.8027,VALID,353,VALID,0.644141,
2008-10-02, 02:33:05,VALID,1004.34,VALID,0,VALID,94.8117,VALID,0,VALID,23.8416,VALID,345,VALID,0.607813,
2008-10-02, 02:34:05,VALID,1004.38,VALID,0,VALID,94.8728,VALID,0,VALID,23.8593,VALID,357,VALID,0.485156,
2008-10-02, 02:35:05,VALID,1004.35,VALID,0,VALID,94.7812,VALID,0,VALID,23.8593,VALID,357,VALID,0.475391,
2008-10-02, 02:36:05,VALID,1004.34,VALID,0,VALID,94.6363,VALID,0,VALID,23.8398,VALID,357,VALID,0.472656,
2008-10-02, 02:37:05,VALID,1004.33,VALID,0,VALID,94.4761,VALID,0,VALID,23.8416,VALID,357,VALID,0.528125,
2008-10-02, 02:38:05,VALID,1004.33,VALID,0,VALID,94.3464,VALID,0,VALID,23.7637,VALID,357,VALID,0.592578,
2008-10-02, 02:39:05,VALID,1004.34,VALID,0,VALID,94.2548,VALID,0.100563,VALID,23.7035,VALID,358,VALID,0.621484,
2008-10-02, 02:40:05,VALID,1004.35,VALID,0,VALID,94.1556,VALID,0.100563,VALID,23.6239,VALID,358,VALID,0.596875,
2008-10-02, 02:41:05,VALID,1004.37,VALID,0,VALID,94.3082,VALID,0.100563,VALID,23.585,VALID,16,VALID,0.633203,
2008-10-02, 02:42:05,VALID,1004.34,VALID,0,VALID,94.5447,VALID,0.100563,VALID,23.6044,VALID,18,VALID,0.646875,
2008-10-02, 02:43:05,VALID,1004.32,VALID,0,VALID,94.7431,VALID,0.100563,VALID,23.6646,VALID,18,VALID,0.573828,
2008-10-02, 02:44:05,VALID,1004.32,VALID,0,VALID,94.8575,VALID,0.100563,VALID,23.723,VALID,18,VALID,0.640234,
2008-10-02, 02:45:05,VALID,1004.31,VALID,0,VALID,94.9338,VALID,0.100563,VALID,23.7619,VALID,18,VALID,0.621094,
2008-10-02, 02:46:05,VALID,1004.32,VALID,0,VALID,94.8422,VALID,0,VALID,23.7619,VALID,18,VALID,0.380859,
2008-10-02, 02:47:05,VALID,1004.32,VALID,0,VALID,94.8422,VALID,0.100563,VALID,23.7619,VALID,18,VALID,0.312891,
2008-10-02, 02:48:05,VALID,1004.33,VALID,0,VALID,94.8575,VALID,0,VALID,23.7212,VALID,18,VALID,0.410156,
2008-10-02, 02:49:05,VALID,1004.28,VALID,0,VALID,94.7812,VALID,0.100563,VALID,23.7425,VALID,18,VALID,0.472656,
2008-10-02, 02:50:05,VALID,1004.29,VALID,0,VALID,94.6591,VALID,0.100563,VALID,23.6841,VALID,18,VALID,0.421484,
2008-10-02, 02:51:05,VALID,1004.27,VALID,0,VALID,94.6134,VALID,0,VALID,23.6646,VALID,18,VALID,0.415625,
2008-10-02, 02:52:05,VALID,1004.26,VALID,0,VALID,94.9414,VALID,0,VALID,23.6841,VALID,18,VALID,0.335156,
2008-10-02, 02:53:05,VALID,1004.26,VALID,0,VALID,95.0101,VALID,0,VALID,23.7425,VALID,359,VALID,0.566016,
2008-10-02, 02:54:05,VALID,1004.25,VALID,0,VALID,95.033,VALID,0.100563,VALID,23.7814,VALID,359,VALID,0.426562,
2008-10-02, 02:55:05,VALID,1004.25,VALID,0,VALID,94.8804,VALID,0.100563,VALID,23.7814,VALID,359,VALID,0.551562,
2008-10-02, 02:56:05,VALID,1004.25,VALID,0,VALID,94.7354,VALID,0,VALID,23.7425,VALID,359,VALID,0.438281,
2008-10-02, 02:57:05,VALID,1004.26,VALID,0,VALID,94.6973,VALID,0,VALID,23.7035,VALID,359,VALID,0.619531,
2008-10-02, 02:58:05,VALID,1004.23,VALID,0,VALID,94.766,VALID,0,VALID,23.6823,VALID,358,VALID,0.701953,
2008-10-02, 02:59:05,VALID,1004.27,VALID,0,VALID,94.7049,VALID,0,VALID,23.6646,VALID,358,VALID,0.636719,
2008-10-02, 03:00:05,VALID,1004.25,VALID,0,VALID,94.8041,VALID,0.100563,VALID,23.6646,VALID,358,VALID,0.594922,
2008-10-02, 03:01:05,VALID,1004.28,VALID,0,VALID,94.8117,VALID,0.100563,VALID,23.6841,VALID,358,VALID,0.668359,
2008-10-02, 03:02:05,VALID,1004.27,VALID,0,VALID,94.8422,VALID,0,VALID,23.6841,VALID,358,VALID,0.632031,
2008-10-02, 03:03:05,VALID,1004.29,VALID,0,VALID,94.8956,VALID,0,VALID,23.6841,VALID,357,VALID,0.523828,
2008-10-02, 03:04:05,VALID,1004.31,VALID,0,VALID,94.8728,VALID,0,VALID,23.6841,VALID,357,VALID,0.526953,
2008-10-02, 03:05:05,VALID,1004.29,VALID,0,VALID,94.8651,VALID,0.100563,VALID,23.6823,VALID,357,VALID,0.404297,
2008-10-02, 03:06:05,VALID,1004.28,VALID,0,VALID,94.8422,VALID,0,VALID,23.6841,VALID,357,VALID,0.346484,
2008-10-02, 03:07:05,VALID,1004.29,VALID,0,VALID,94.8422,VALID,0,VALID,23.6646,VALID,357,VALID,0.411719,
2008-10-02, 03:08:05,VALID,1004.3,VALID,0,VALID,94.8346,VALID,0,VALID,23.6239,VALID,357,VALID,0.446484,
2008-10-02, 03:09:05,VALID,1004.26,VALID,0,VALID,94.8346,VALID,0,VALID,23.6452,VALID,357,VALID,0.541016,
2008-10-02, 03:10:05,VALID,1004.28,VALID,0,VALID,94.9033,VALID,0.100563,VALID,23.6044,VALID,352,VALID,0.632422,
2008-10-02, 03:11:05,VALID,1004.27,VALID,0,VALID,95.0024,VALID,0.100563,VALID,23.6434,VALID,352,VALID,0.456641,
2008-10-02, 03:12:05,VALID,1004.26,VALID,0,VALID,95.0635,VALID,0.100563,VALID,23.6628,VALID,352,VALID,0.418359,
2008-10-02, 03:13:05,VALID,1004.25,VALID,0,VALID,95.1093,VALID,0.100563,VALID,23.723,VALID,351,VALID,0.560938,
2008-10-02, 03:14:05,VALID,1004.23,VALID,0,VALID,95.0635,VALID,0.100563,VALID,23.7212,VALID,351,VALID,0.388672,
2008-10-02, 03:15:05,VALID,1004.25,VALID,0,VALID,94.9109,VALID,0,VALID,23.7035,VALID,351,VALID,0.453125,
2008-10-02, 03:16:05,VALID,1004.26,VALID,0,VALID,94.8346,VALID,0.100563,VALID,23.6841,VALID,351,VALID,0.30625,
2008-10-02, 03:17:05,VALID,1004.27,VALID,0,VALID,94.7812,VALID,0,VALID,23.6239,VALID,351,VALID,0.233984,
2008-10-02, 03:18:05,VALID,1004.28,VALID,0,VALID,94.8117,VALID,0.100563,VALID,23.6257,VALID,351,VALID,0.0746094,
2008-10-02, 03:19:05,VALID,1004.28,VALID,0,VALID,94.9033,VALID,0.100563,VALID,23.6452,VALID,351,VALID,0.165625,
2008-10-02, 03:20:05,VALID,1004.29,VALID,0,VALID,95.0024,VALID,0.100563,VALID,23.6646,VALID,351,VALID,0.228906,
2008-10-02, 03:21:05,VALID,1004.3,VALID,0,VALID,95.0711,VALID,0.100563,VALID,23.723,VALID,351,VALID,0.0667969,
2008-10-02, 03:22:05,VALID,1004.33,VALID,0,VALID,95.0787,VALID,0.100563,VALID,23.7425,VALID,351,VALID,0.335938,
2008-10-02, 03:23:05,VALID,1004.34,VALID,0,VALID,95.155,VALID,0,VALID,23.7814,VALID,3,VALID,0.532031,
2008-10-02, 03:24:05,VALID,1004.36,VALID,0,VALID,95.2008,VALID,0.100563,VALID,23.8593,VALID,20,VALID,0.412109,
2008-10-02, 03:25:05,VALID,1004.37,VALID,0,VALID,95.1245,VALID,0.100563,VALID,23.8575,VALID,19,VALID,0.509375,
2008-10-02, 03:26:05,VALID,1004.36,VALID,0,VALID,95.2084,VALID,0,VALID,23.8982,VALID,3,VALID,0.533203,
2008-10-02, 03:27:05,VALID,1004.39,VALID,0,VALID,95.2008,VALID,0.100563,VALID,23.9371,VALID,358,VALID,0.423828,
2008-10-02, 03:28:05,VALID,1004.41,VALID,0,VALID,95.0711,VALID,0.100563,VALID,23.9761,VALID,358,VALID,0.442969,
2008-10-02, 03:29:05,VALID,1004.41,VALID,0,VALID,94.9262,VALID,0.100563,VALID,23.9566,VALID,358,VALID,0.260156,
2008-10-02, 03:30:05,VALID,1004.41,VALID,0,VALID,94.8346,VALID,0.100563,VALID,23.9371,VALID,358,VALID,0.416797,
2008-10-02, 03:31:05,VALID,1004.42,VALID,0,VALID,94.7354,VALID,0.100563,VALID,23.9177,VALID,358,VALID,0.246875,
2008-10-02, 03:32:05,VALID,1004.41,VALID,0,VALID,94.7125,VALID,0.100563,VALID,23.9177,VALID,358,VALID,0.278125,
2008-10-02, 03:33:04,VALID,1004.43,VALID,0,VALID,94.6286,VALID,0,VALID,23.8575,VALID,358,VALID,0.200391,
2008-10-02, 03:34:04,VALID,1004.43,VALID,0,VALID,94.6897,VALID,0,VALID,23.8787,VALID,358,VALID,0.169922,
2008-10-02, 03:35:04,VALID,1004.41,VALID,0,VALID,94.6897,VALID,0,VALID,23.8575,VALID,358,VALID,0.139453,
2008-10-02, 03:36:04,VALID,1004.39,VALID,0,VALID,94.5829,VALID,0.100563,VALID,23.838,VALID,358,VALID,0.253906,
2008-10-02, 03:37:04,VALID,1004.41,VALID,0,VALID,94.5523,VALID,0.100563,VALID,23.8185,VALID,358,VALID,0.369141,
2008-10-02, 03:38:04,VALID,1004.39,VALID,0,VALID,94.5447,VALID,0.100563,VALID,23.7796,VALID,358,VALID,0.347266,
2008-10-02, 03:39:04,VALID,1004.42,VALID,0,VALID,94.5829,VALID,0,VALID,23.8009,VALID,358,VALID,0.489844,
2008-10-02, 03:40:04,VALID,1004.42,VALID,0,VALID,94.5218,VALID,0,VALID,23.7637,VALID,358,VALID,0.358984,
2008-10-02, 03:41:04,VALID,1004.41,VALID,0,VALID,94.56,VALID,0,VALID,23.7832,VALID,358,VALID,0.614453,
2008-10-02, 03:42:04,VALID,1004.4,VALID,0,VALID,94.6439,VALID,0,VALID,23.7637,VALID,358,VALID,0.407813,
2008-10-02, 03:43:04,VALID,1004.4,VALID,0,VALID,94.7125,VALID,0,VALID,23.7832,VALID,358,VALID,0.428125,
2008-10-02, 03:44:04,VALID,1004.38,VALID,0,VALID,94.6363,VALID,0,VALID,23.7832,VALID,358,VALID,0.441406,